Location: Unspecified
(0.0000°N, 0.0000°E)
Time: 13:20:42
(UTC+00:00)

LightSail 2 - Pass Details

Date: 14 September 2019
Orbit: 699 x 732 km, 24.0° (Epoch: 17 September)

Event Time Altitude Azimuth Distance (km) Brightness Sun altitude
Exits shadow 04:19:58 72° 270° (W) 731 4.9 -23.9°
Maximum altitude 04:20:26 82° 334° (NNW) 706 5.0 -23.8°
Drops below altitude 10° 04:25:32 10° 62° (ENE) 2,157 8.5 -22.5°
Sets 04:27:58 0° 63° (ENE) 3,079 9.6 -21.9°
